Hourly Data Report for September 30, 2017

All times are specified in Local Standard Time (LST). Add 1 hour to adjust for Daylight Saving Time where and when it is observed.

CLYDE RIVER A
NUNAVUT

70°29'09.000" N
68°31'01.000" W
26.50 m
2400804
71090
YCY

Related Data

No related data is available for this station

Download Data

Hourly Data (September 2017)
Hourly Data Report for September 30, 2017
Temp Definition
°C
Dew Point Temp Definition
°C
Rel Hum Definition
%
Wind Dir Definition
10's deg

Wind Spd Definition
km/h
Visibility Definition
km
Stn Press Definition
kPa
Hmdx Definition


Wind Chill Definition


Weather Definition


TIME
00:00 Legend Double Dagger -5.8 -9.1 78 29 30 16.1 100.16   -14 Snow
01:00 Legend Double Dagger -6.0 -8.6 82 29 26 16.1 100.13   -14 Snow
02:00 Legend Double Dagger -5.8 -8.0 85 29 28 16.1 100.07   -14 Snow
03:00 Legend Double Dagger -5.6 -7.5 87 30 30 9.7 100.02   -14 Snow
04:00 Legend Double Dagger -5.2 -6.9 88 30 30 14.5 99.95   -13 Snow
05:00 Legend Double Dagger -4.8 -6.4 88 31 39 4.8 99.86   -14 Snow
06:00 Legend Double Dagger -3.7 -5.6 87 36 13 6.4 99.83   -9 Snow
07:00 Legend Double Dagger -3.2 -4.6 90 31 34 9.7 99.79   -11 Snow
08:00 Legend Double Dagger -2.3 -3.3 93 31 30 4.0 99.76   -9 Snow
09:00 Legend Double Dagger 0.5 -0.1 96 5 22 8.1 99.78     Fog
10:00 Legend Double Dagger 0.4 0.0 97 5 26 3.2 99.81     Snow
11:00 Legend Double Dagger 0.5 -0.1 96 4 26 4.8 99.84     Snow
12:00 Legend Double Dagger 0.7 0.1 96 2 18 9.7 99.88     Fog
13:00 Legend Double Dagger 0.7 -0.3 93 1 17 16.1 99.92     LegendNANA
14:00 Legend Double Dagger 0.7 -0.3 93 36 18 16.1 99.96     LegendNANA
15:00 Legend Double Dagger 0.6 -0.1 95 36 15 16.1 100.01     Rain
16:00 Legend Double Dagger 0.6 -0.1 95 35 18 16.1 100.05     Rain
17:00 Legend Double Dagger 0.6 -0.1 95 35 22 16.1 100.09     Rain
18:00 Legend Double Dagger 0.5 -0.2 95 34 24 14.5 100.15     Rain,Snow
19:00 Legend Double Dagger 0.5 -0.2 95 34 24 16.1 100.18     LegendNANA
20:00 Legend Double Dagger 0.4 -0.2 96 35 32 12.9 100.20     Rain
21:00 Legend Double Dagger -0.2 -0.9 95 34 37 4.8 100.22   -7 Rain,Snow
22:00 Legend Double Dagger -0.2 -0.9 95 33 34 3.6 100.26   -7 Snow
23:00 Legend Double Dagger -0.4 -1.4 93 33 34 6.4 100.29   -7 Snow

Notes on Data Quality.

Legend

  • E = Estimated
  • M = Missing
  • NA = Not Available
  • ‡ = Partner data that is not subject to review by the National Climate Archives
Date modified: